Terminal Aerodrome Forecast
Issued by NWS

Home | Current Version | Previous Version | Text Only | Print | Product List | Glossary On
Versions: 1 2 3 4 5 6 7 8 9 10 11 12
000
FTUS44 KLIX 261139
TAFGPT
TAF
KGPT 261139Z 2612/2712 00000KT P6SM SKC
     FM261500 01004KT P6SM FEW250
     FM262000 20005KT P6SM VCSH SCT040
     FM270400 35003KT P6SM BKN100=

USA.gov is the U.S. government's official web portal to all federal, state and local government web resources and services.